Lid_Strength_Index
9 8 8 7 6 6 5 5 6 7 7 4 4 3 3 2 1 -0 0 3 2 2 2 2 1 1 1 1 1 0 -0 -0 -1 -0 -0 -1 -0 -0
9 9 9 8 7 7 8 7 7 8 9 7 7 5 4 4 4 4 2 4 3 3 2 3 2 2 1 1 1 1 0 0 0 -0 -0 -0 -0 -0
9 9 9 8 9 9 9 8 9 9 10 10 9 8 8 8 7 6 5 5 3 3 3 3 3 3 3 2 2 2 2 1 1 1 1 0 0 0
10 10 10 10 10 10 10 10 10 9 11 12 10 10 9 8 7 7 6 6 5 4 5 5 3 3 3 3 3 3 3 3 3 3 2 2 1 1
11 12 12 12 12 12 11 11 11 11 11 11 12 10 10 9 9 8 8 7 6 6 5 5 5 4 3 3 3 4 4 4 4 4 4 4 3 2
12 12 12 12 13 12 12 13 12 12 12 13 13 12 12 11 10 11 11 9 9 7 6 6 5 4 3 4 4 5 5 5 4 5 5 5 4 4
13 13 13 13 12 12 12 13 13 13 13 13 14 13 13 13 13 12 13 12 11 10 9 8 8 8 7 6 6 6 3 4 5 5 6 6 5 5
14 14 13 13 13 12 12 12 12 13 13 14 14 14 13 13 14 14 14 14 15 11 11 11 9 9 8 7 6 5 5 5 2 4 5 5 6 6
15 14 14 14 14 14 13 13 13 12 12 14 15 15 15 14 14 15 14 14 14 12 11 12 10 10 9 7 6 5 5 4 4 3 3 5 6 6
15 15 15 15 15 14 15 15 15 14 14 14 14 14 15 14 14 14 15 15 14 13 11 13 10 11 9 8 6 6 5 5 4 4 2 3 5 6
16 16 16 17 15 14 16 17 17 17 15 14 14 15 15 15 14 16 19 19 20 18 16 16 13 13 12 11 9 7 6 6 5 4 4 2 3 5
17 16 16 16 15 15 16 17 19 18 17 18 18 18 17 16 15 17 17 20 20 20 15 17 17 16 17 14 11 9 8 7 6 5 4 3 3 3
17 17 17 15 15 15 16 18 18 17 19 20 20 20 20 19 19 18 18 19 20 20 17 17 18 18 17 17 15 12 9 8 7 6 5 4 3 3
18 17 17 16 16 17 18 17 17 19 22 23 23 23 22 22 21 20 19 18 18 18 17 17 19 18 18 19 18 14 12 9 8 7 7 5 4 4
17 16 17 17 18 19 19 19 21 22 24 25 25 24 23 22 21 21 20 19 18 17 16 16 15 16 16 18 19 17 16 14 10 8 7 7 6 5
17 21 19 20 21 21 22 22 23 23 23 24 24 23 22 22 22 21 22 21 21 20 16 14 13 14 17 16 17 18 16 16 11 9 8 7 6 6
25 26 25 24 25 24 24 24 23 23 24 23 24 24 23 23 22 21 21 22 23 22 20 18 15 14 14 14 17 15 14 14 12 8 8 8 7 6
31 32 27 26 26 25 25 25 24 24 24 24 24 24 24 24 24 23 22 22 23 22 21 20 18 18 17 16 12 15 16 15 14 14 10 8 9 7
35 34 30 27 26 25 25 25 26 24 24 24 25 25 25 25 25 25 23 23 23 23 22 20 18 19 21 22 18 13 15 16 16 15 14 8 9 8
34 34 32 30 28 27 26 26 26 26 26 26 26 26 26 26 26 25 25 25 24 24 23 20 19 19 20 21 21 18 12 13 14 12 12 8 7 8
33 32 30 30 28 28 27 27 28 27 27 28 28 28 27 27 27 26 25 25 24 24 24 21 18 16 17 17 19 20 17 12 11 11 8 9 9 12
31 31 30 31 31 30 30 30 29 29 29 29 28 28 28 27 27 27 26 26 25 24 22 19 18 18 18 19 20 20 19 16 13 8 7 8 10 14
29 30 30 30 31 32 32 31 30 29 29 29 29 29 28 28 27 27 27 26 25 23 20 20 19 18 19 20 19 19 19 18 12 10 10 10 9 9